,,,PA_Meas_PMT16A,,PR_Meas_QMR101_102,,RH_Meas_QMH101,,SR_Meas_QMS101,,TA_Meas_QMH101,,GenWind,,GenWind,
date,time,status,PA,status,PR,status,RH,status,SR,status,TA,status,DirAvg,status,SpdAvg,
2010-10-31, 00:00:04,VALID,999.048,VALID,0,VALID,93.6765,VALID,0,VALID,22.6477,VALID,135,VALID,0.690234,
2010-10-31, 00:01:04,VALID,999.021,VALID,0,VALID,93.6841,VALID,0.112286,VALID,22.6477,VALID,135,VALID,0.676562,
2010-10-31, 00:02:04,VALID,999.009,VALID,0,VALID,93.6841,VALID,0,VALID,22.6477,VALID,135,VALID,0.652344,
2010-10-31, 00:03:04,VALID,999.014,VALID,0,VALID,93.6765,VALID,0,VALID,22.6477,VALID,135,VALID,0.714063,
2010-10-31, 00:04:04,VALID,999.025,VALID,0,VALID,93.6688,VALID,0,VALID,22.6477,VALID,135,VALID,0.675391,
2010-10-31, 00:05:04,VALID,999.019,VALID,0,VALID,93.6917,VALID,0,VALID,22.6477,VALID,135,VALID,0.615625,
2010-10-31, 00:06:04,VALID,998.993,VALID,0,VALID,93.6688,VALID,0,VALID,22.6282,VALID,135,VALID,0.53125,
2010-10-31, 00:07:04,VALID,999.023,VALID,0,VALID,93.6612,VALID,0,VALID,22.6477,VALID,135,VALID,0.423828,
2010-10-31, 00:08:04,VALID,999.002,VALID,0,VALID,93.6841,VALID,0,VALID,22.6477,VALID,135,VALID,0.391406,
2010-10-31, 00:09:04,VALID,999.023,VALID,0,VALID,93.6841,VALID,0,VALID,22.6282,VALID,135,VALID,0.423438,
2010-10-31, 00:10:04,VALID,999.016,VALID,0,VALID,93.6841,VALID,0,VALID,22.6282,VALID,135,VALID,0.369531,
2010-10-31, 00:11:04,VALID,999.01,VALID,0,VALID,93.6917,VALID,0,VALID,22.6087,VALID,135,VALID,0.303516,
2010-10-31, 00:12:04,VALID,998.992,VALID,0,VALID,93.6612,VALID,0,VALID,22.6087,VALID,135,VALID,0.309375,
2010-10-31, 00:13:04,VALID,999.004,VALID,0,VALID,93.6765,VALID,0,VALID,22.5892,VALID,135,VALID,0.362109,
2010-10-31, 00:14:04,VALID,998.992,VALID,0,VALID,93.6841,VALID,0,VALID,22.5892,VALID,135,VALID,0.240234,
2010-10-31, 00:15:04,VALID,998.999,VALID,0,VALID,93.6612,VALID,0,VALID,22.6087,VALID,135,VALID,0.191016,
2010-10-31, 00:16:04,VALID,998.988,VALID,0,VALID,93.6841,VALID,0,VALID,22.5892,VALID,135,VALID,0.182031,
2010-10-31, 00:17:04,VALID,999.005,VALID,0,VALID,93.6612,VALID,0,VALID,22.6087,VALID,135,VALID,0.119531,
2010-10-31, 00:18:04,VALID,999.005,VALID,0,VALID,93.6765,VALID,0,VALID,22.6087,VALID,135,VALID,0,
2010-10-31, 00:19:04,VALID,999.031,VALID,0,VALID,93.6994,VALID,0,VALID,22.6087,VALID,135,VALID,0,
2010-10-31, 00:20:04,VALID,999.018,VALID,0,VALID,93.6688,VALID,0,VALID,22.5892,VALID,135,VALID,0,
2010-10-31, 00:21:04,VALID,999.018,VALID,0,VALID,93.6612,VALID,0,VALID,22.6087,VALID,135,VALID,0,
2010-10-31, 00:22:04,VALID,999.023,VALID,0,VALID,93.6765,VALID,0,VALID,22.6087,VALID,135,VALID,0.0820313,
2010-10-31, 00:23:04,VALID,999.023,VALID,0,VALID,93.6688,VALID,0,VALID,22.5501,VALID,135,VALID,0.175781,
2010-10-31, 00:24:04,VALID,999.01,VALID,0,VALID,93.707,VALID,0,VALID,22.4721,VALID,135,VALID,0.343359,
2010-10-31, 00:25:04,VALID,999.018,VALID,0,VALID,93.6841,VALID,0,VALID,22.3924,VALID,135,VALID,0.347266,
2010-10-31, 00:26:04,VALID,998.996,VALID,0,VALID,93.6841,VALID,0,VALID,22.3356,VALID,135,VALID,0.217187,
2010-10-31, 00:27:04,VALID,998.992,VALID,0,VALID,93.707,VALID,0,VALID,22.2966,VALID,135,VALID,0.114063,
2010-10-31, 00:28:04,VALID,999.003,VALID,0,VALID,93.6917,VALID,0,VALID,22.3161,VALID,135,VALID,0,
2010-10-31, 00:29:04,VALID,998.996,VALID,0,VALID,93.6917,VALID,0,VALID,22.3161,VALID,135,VALID,0,
2010-10-31, 00:30:04,VALID,998.979,VALID,0,VALID,93.6917,VALID,0,VALID,22.3356,VALID,135,VALID,0,
2010-10-31, 00:31:04,VALID,998.967,VALID,0,VALID,93.7146,VALID,0,VALID,22.3356,VALID,135,VALID,0,
2010-10-31, 00:32:04,VALID,998.969,VALID,0,VALID,93.6994,VALID,0,VALID,22.3356,VALID,135,VALID,0,
2010-10-31, 00:33:04,VALID,998.938,VALID,0,VALID,93.7146,VALID,0,VALID,22.3568,VALID,135,VALID,0,
2010-10-31, 00:34:04,VALID,998.896,VALID,0,VALID,93.7146,VALID,0,VALID,22.3551,VALID,135,VALID,0,
2010-10-31, 00:35:04,VALID,998.882,VALID,0,VALID,93.7375,VALID,0,VALID,22.3941,VALID,135,VALID,0,
2010-10-31, 00:36:04,VALID,998.874,VALID,0,VALID,93.7299,VALID,0,VALID,22.4153,VALID,135,VALID,0,
2010-10-31, 00:37:04,VALID,998.842,VALID,0,VALID,93.7146,VALID,0,VALID,22.3746,VALID,135,VALID,0,
2010-10-31, 00:38:04,VALID,998.801,VALID,0,VALID,93.7451,VALID,0,VALID,22.3746,VALID,135,VALID,0,
2010-10-31, 00:39:04,VALID,998.777,VALID,0,VALID,93.7299,VALID,0,VALID,22.3356,VALID,135,VALID,0,
2010-10-31, 00:40:04,VALID,998.776,VALID,0,VALID,93.7528,VALID,0,VALID,22.3356,VALID,135,VALID,0,
2010-10-31, 00:41:04,VALID,998.736,VALID,0,VALID,93.7604,VALID,0,VALID,22.3161,VALID,135,VALID,0,
2010-10-31, 00:42:04,VALID,998.736,VALID,0,VALID,93.7528,VALID,0,VALID,22.2966,VALID,135,VALID,0,
2010-10-31, 00:43:04,VALID,998.71,VALID,0,VALID,93.7757,VALID,0,VALID,22.2966,VALID,135,VALID,0,
2010-10-31, 00:44:04,VALID,998.703,VALID,0,VALID,93.7757,VALID,0,VALID,22.2771,VALID,135,VALID,0,
2010-10-31, 00:45:04,VALID,998.677,VALID,0,VALID,93.7833,VALID,0,VALID,22.2771,VALID,135,VALID,0,
2010-10-31, 00:46:04,VALID,998.668,VALID,0,VALID,93.768,VALID,0,VALID,22.2771,VALID,135,VALID,0,
2010-10-31, 00:47:04,VALID,998.714,VALID,0,VALID,93.7833,VALID,0,VALID,22.2186,VALID,135,VALID,0,
2010-10-31, 00:48:04,VALID,998.665,VALID,0,VALID,93.7985,VALID,0,VALID,22.1795,VALID,135,VALID,0,
2010-10-31, 00:49:04,VALID,998.679,VALID,0,VALID,93.8062,VALID,0,VALID,22.2186,VALID,135,VALID,0.227734,
2010-10-31, 00:50:04,VALID,998.659,VALID,0,VALID,93.8214,VALID,0,VALID,22.2381,VALID,135,VALID,0.2625,
2010-10-31, 00:51:04,VALID,998.647,VALID,0,VALID,93.8291,VALID,0,VALID,22.2381,VALID,135,VALID,0.410937,
2010-10-31, 00:52:04,VALID,998.595,VALID,0,VALID,93.8291,VALID,0,VALID,22.2966,VALID,135,VALID,0.529297,
2010-10-31, 00:53:04,VALID,998.58,VALID,0,VALID,93.8138,VALID,0,VALID,22.3551,VALID,135,VALID,0.713672,
2010-10-31, 00:54:04,VALID,998.596,VALID,0,VALID,93.8138,VALID,0,VALID,22.3356,VALID,135,VALID,0.560547,
2010-10-31, 00:55:04,VALID,998.551,VALID,0,VALID,93.8138,VALID,0,VALID,22.3551,VALID,135,VALID,0.685156,
2010-10-31, 00:56:04,VALID,998.515,VALID,0,VALID,93.8367,VALID,0,VALID,22.3551,VALID,135,VALID,0.577734,
2010-10-31, 00:57:04,VALID,998.559,VALID,0,VALID,93.8367,VALID,0,VALID,22.3551,VALID,135,VALID,0.641406,
2010-10-31, 00:58:04,VALID,998.52,VALID,0,VALID,93.852,VALID,0,VALID,22.3746,VALID,135,VALID,0.667578,
2010-10-31, 00:59:04,VALID,998.49,VALID,0,VALID,93.8672,VALID,0,VALID,22.3746,VALID,135,VALID,0.529688,
2010-10-31, 01:00:04,VALID,998.492,VALID,0,VALID,93.8672,VALID,0,VALID,22.3551,VALID,135,VALID,0.354297,
2010-10-31, 01:01:04,VALID,998.499,VALID,0,VALID,93.852,VALID,0,VALID,22.3356,VALID,135,VALID,0.137109,
2010-10-31, 01:02:04,VALID,998.486,VALID,0,VALID,93.8596,VALID,0,VALID,22.3161,VALID,135,VALID,0.226953,
2010-10-31, 01:03:04,VALID,998.473,VALID,0,VALID,93.8748,VALID,0,VALID,22.2576,VALID,135,VALID,0.0421875,
2010-10-31, 01:04:04,VALID,998.489,VALID,0,VALID,93.9054,VALID,0,VALID,22.1795,VALID,135,VALID,0,
2010-10-31, 01:05:04,VALID,998.454,VALID,0,VALID,93.8977,VALID,0,VALID,22.121,VALID,135,VALID,0,
2010-10-31, 01:06:04,VALID,998.491,VALID,0,VALID,93.9054,VALID,0,VALID,22.0998,VALID,135,VALID,0,
2010-10-31, 01:07:04,VALID,998.477,VALID,0,VALID,93.8977,VALID,0,VALID,22.1422,VALID,135,VALID,0.178516,
2010-10-31, 01:08:04,VALID,998.456,VALID,0,VALID,93.9054,VALID,0,VALID,22.16,VALID,135,VALID,0.289844,
2010-10-31, 01:09:04,VALID,998.427,VALID,0,VALID,93.9283,VALID,0,VALID,22.2186,VALID,135,VALID,0.387891,
2010-10-31, 01:10:04,VALID,998.422,VALID,0,VALID,93.9054,VALID,0,VALID,22.2576,VALID,135,VALID,0.60625,
2010-10-31, 01:11:04,VALID,998.413,VALID,0,VALID,93.9206,VALID,0,VALID,22.2576,VALID,135,VALID,0.674219,
2010-10-31, 01:12:04,VALID,998.39,VALID,0,VALID,93.9206,VALID,0,VALID,22.2966,VALID,135,VALID,0.579297,
2010-10-31, 01:13:04,VALID,998.425,VALID,0,VALID,93.9283,VALID,0,VALID,22.3356,VALID,135,VALID,0.565625,
2010-10-31, 01:14:04,VALID,998.432,VALID,0,VALID,93.9435,VALID,0,VALID,22.3746,VALID,135,VALID,0.491406,
2010-10-31, 01:15:04,VALID,998.408,VALID,0,VALID,93.9435,VALID,0,VALID,22.3941,VALID,135,VALID,0.375781,
2010-10-31, 01:16:04,VALID,998.443,VALID,0,VALID,93.9054,VALID,0,VALID,22.3941,VALID,135,VALID,0.309766,
2010-10-31, 01:17:04,VALID,998.433,VALID,0,VALID,93.9206,VALID,0,VALID,22.3941,VALID,135,VALID,0.274609,
2010-10-31, 01:18:04,VALID,998.388,VALID,0,VALID,93.9359,VALID,0,VALID,22.4543,VALID,135,VALID,0.361328,
2010-10-31, 01:19:04,VALID,998.391,VALID,0,VALID,93.913,VALID,0,VALID,22.4721,VALID,135,VALID,0.444922,
2010-10-31, 01:20:04,VALID,998.388,VALID,0,VALID,93.9435,VALID,0,VALID,22.4136,VALID,149,VALID,0.803516,
2010-10-31, 01:21:04,VALID,998.36,VALID,0,VALID,93.9435,VALID,0,VALID,22.4119,VALID,150,VALID,0.749219,
2010-10-31, 01:22:04,VALID,998.343,VALID,0,VALID,93.9283,VALID,0,VALID,22.4331,VALID,151,VALID,0.517969,
2010-10-31, 01:23:04,VALID,998.344,VALID,0,VALID,93.9435,VALID,0,VALID,22.4331,VALID,151,VALID,0.278125,
2010-10-31, 01:24:04,VALID,998.333,VALID,0,VALID,93.9511,VALID,0,VALID,22.4526,VALID,151,VALID,0.255469,
2010-10-31, 01:25:04,VALID,998.314,VALID,0,VALID,93.9588,VALID,0,VALID,22.4526,VALID,151,VALID,0.271875,
2010-10-31, 01:26:04,VALID,998.322,VALID,0,VALID,93.9435,VALID,0,VALID,22.4526,VALID,151,VALID,0.111328,
2010-10-31, 01:27:04,VALID,998.331,VALID,0,VALID,93.9359,VALID,0,VALID,22.4331,VALID,151,VALID,0.162109,
2010-10-31, 01:28:04,VALID,998.325,VALID,0,VALID,93.9359,VALID,0,VALID,22.4348,VALID,151,VALID,0.333203,
2010-10-31, 01:29:04,VALID,998.322,VALID,0,VALID,93.9588,VALID,0,VALID,22.3941,VALID,151,VALID,0.450391,
2010-10-31, 01:30:04,VALID,998.316,VALID,0,VALID,93.9435,VALID,0,VALID,22.3958,VALID,141,VALID,0.600391,
2010-10-31, 01:31:04,VALID,998.299,VALID,0,VALID,93.9435,VALID,0,VALID,22.3941,VALID,141,VALID,0.500391,
2010-10-31, 01:32:04,VALID,998.279,VALID,0,VALID,93.9435,VALID,0,VALID,22.3551,VALID,141,VALID,0.407031,
2010-10-31, 01:33:04,VALID,998.296,VALID,0,VALID,93.9435,VALID,0,VALID,22.2576,VALID,141,VALID,0.438672,
2010-10-31, 01:34:04,VALID,998.313,VALID,0,VALID,93.9664,VALID,0,VALID,22.199,VALID,121,VALID,0.532812,
2010-10-31, 01:35:04,VALID,998.317,VALID,0,VALID,93.9664,VALID,0,VALID,22.1795,VALID,104,VALID,0.388281,
2010-10-31, 01:36:04,VALID,998.324,VALID,0,VALID,93.9511,VALID,0,VALID,22.1795,VALID,104,VALID,0.333203,
2010-10-31, 01:37:04,VALID,998.322,VALID,0,VALID,93.9511,VALID,0,VALID,22.16,VALID,104,VALID,0.409766,
2010-10-31, 01:38:04,VALID,998.31,VALID,0,VALID,93.9511,VALID,0,VALID,22.1812,VALID,104,VALID,0.486328,
2010-10-31, 01:39:04,VALID,998.307,VALID,0,VALID,93.9511,VALID,0,VALID,22.199,VALID,104,VALID,0.51875,
2010-10-31, 01:40:04,VALID,998.315,VALID,0,VALID,93.9435,VALID,0,VALID,22.2186,VALID,104,VALID,0.632813,
2010-10-31, 01:41:04,VALID,998.3,VALID,0,VALID,93.9511,VALID,0,VALID,22.2381,VALID,60,VALID,0.755469,
2010-10-31, 01:42:04,VALID,998.291,VALID,0,VALID,93.9359,VALID,0,VALID,22.1795,VALID,56,VALID,0.780469,
2010-10-31, 01:43:04,VALID,998.274,VALID,0,VALID,93.9511,VALID,0,VALID,22.121,VALID,56,VALID,0.725781,
2010-10-31, 01:44:04,VALID,998.263,VALID,0,VALID,93.9588,VALID,0,VALID,22.0625,VALID,48,VALID,0.688281,
2010-10-31, 01:45:04,VALID,998.237,VALID,0,VALID,93.974,VALID,0,VALID,22.0235,VALID,48,VALID,0.458203,
2010-10-31, 01:46:04,VALID,998.268,VALID,0,VALID,93.9588,VALID,0,VALID,21.9845,VALID,48,VALID,0.257031,
2010-10-31, 01:47:04,VALID,998.274,VALID,0,VALID,93.9664,VALID,0,VALID,21.9667,VALID,48,VALID,0.117969,
2010-10-31, 01:48:04,VALID,998.251,VALID,0,VALID,93.9511,VALID,0,VALID,21.926,VALID,48,VALID,0.0855469,
2010-10-31, 01:49:04,VALID,998.223,VALID,0,VALID,93.9664,VALID,0,VALID,21.926,VALID,48,VALID,0.125,
2010-10-31, 01:50:04,VALID,998.223,VALID,0,VALID,93.9664,VALID,0,VALID,21.9455,VALID,48,VALID,0,
2010-10-31, 01:51:04,VALID,998.217,VALID,0,VALID,93.9511,VALID,0,VALID,21.926,VALID,48,VALID,0,
2010-10-31, 01:52:04,VALID,998.189,VALID,0,VALID,93.9664,VALID,0,VALID,21.9845,VALID,48,VALID,0,
2010-10-31, 01:53:04,VALID,998.186,VALID,0,VALID,93.9664,VALID,0,VALID,22.043,VALID,48,VALID,0,
2010-10-31, 01:54:04,VALID,998.141,VALID,0,VALID,93.9359,VALID,0,VALID,22.1015,VALID,48,VALID,0,
2010-10-31, 01:55:04,VALID,998.136,VALID,0,VALID,93.9588,VALID,0,VALID,22.1405,VALID,48,VALID,0,
2010-10-31, 01:56:04,VALID,998.109,VALID,0,VALID,93.9435,VALID,0,VALID,22.1389,VALID,48,VALID,0,
2010-10-31, 01:57:04,VALID,998.129,VALID,0,VALID,93.9435,VALID,0,VALID,22.1584,VALID,48,VALID,0,
2010-10-31, 01:58:04,VALID,998.141,VALID,0,VALID,93.9511,VALID,0,VALID,22.1779,VALID,48,VALID,0,
2010-10-31, 01:59:04,VALID,998.134,VALID,0,VALID,93.9435,VALID,0,VALID,22.2186,VALID,48,VALID,0,
2010-10-31, 02:00:04,VALID,998.155,VALID,0,VALID,93.9664,VALID,0,VALID,22.2576,VALID,48,VALID,0.228906,
2010-10-31, 02:01:04,VALID,998.144,VALID,0,VALID,93.9588,VALID,0,VALID,22.2381,VALID,48,VALID,0.000390625,
2010-10-31, 02:02:04,VALID,998.145,VALID,0,VALID,93.9588,VALID,0,VALID,22.1974,VALID,48,VALID,0.283594,
2010-10-31, 02:03:04,VALID,998.162,VALID,0,VALID,93.9435,VALID,0,VALID,22.2186,VALID,115,VALID,0.421484,
2010-10-31, 02:04:04,VALID,998.136,VALID,0,VALID,93.9588,VALID,0,VALID,22.1795,VALID,115,VALID,0.394922,
2010-10-31, 02:05:04,VALID,998.142,VALID,0,VALID,93.974,VALID,0,VALID,22.2007,VALID,115,VALID,0.460938,
2010-10-31, 02:06:04,VALID,998.168,VALID,0,VALID,93.9435,VALID,0,VALID,22.199,VALID,115,VALID,0.316797,
2010-10-31, 02:07:04,VALID,998.168,VALID,0,VALID,93.9588,VALID,0,VALID,22.2186,VALID,115,VALID,0.205469,
2010-10-31, 02:08:04,VALID,998.189,VALID,0,VALID,93.974,VALID,0,VALID,22.2576,VALID,115,VALID,0.24375,
2010-10-31, 02:09:04,VALID,998.19,VALID,0,VALID,93.9588,VALID,0,VALID,22.2771,VALID,115,VALID,0.225391,
2010-10-31, 02:10:04,VALID,998.178,VALID,0,VALID,93.9588,VALID,0,VALID,22.2966,VALID,115,VALID,0.307422,
2010-10-31, 02:11:04,VALID,998.189,VALID,0,VALID,93.9435,VALID,0,VALID,22.3356,VALID,115,VALID,0.383984,
2010-10-31, 02:12:04,VALID,998.179,VALID,0,VALID,93.9588,VALID,0,VALID,22.2966,VALID,115,VALID,0.368359,
2010-10-31, 02:13:04,VALID,998.189,VALID,0,VALID,93.9664,VALID,0,VALID,22.3161,VALID,115,VALID,0.408203,
2010-10-31, 02:14:04,VALID,998.213,VALID,0,VALID,93.9588,VALID,0,VALID,22.3339,VALID,115,VALID,0.634766,
2010-10-31, 02:15:04,VALID,998.241,VALID,0,VALID,93.9664,VALID,0,VALID,22.3551,VALID,115,VALID,0.489453,
2010-10-31, 02:16:04,VALID,998.22,VALID,0,VALID,93.9664,VALID,0,VALID,22.3534,VALID,115,VALID,0.466797,
2010-10-31, 02:17:04,VALID,998.221,VALID,0,VALID,93.9588,VALID,0,VALID,22.3746,VALID,115,VALID,0.425391,
2010-10-31, 02:18:04,VALID,998.244,VALID,0,VALID,93.9588,VALID,0,VALID,22.3746,VALID,115,VALID,0.496875,
2010-10-31, 02:19:04,VALID,998.197,VALID,0,VALID,93.9588,VALID,0,VALID,22.3941,VALID,115,VALID,0.6375,
2010-10-31, 02:20:04,VALID,998.189,VALID,0,VALID,93.9588,VALID,0,VALID,22.3941,VALID,112,VALID,0.597656,
2010-10-31, 02:21:04,VALID,998.18,VALID,0,VALID,93.9511,VALID,0,VALID,22.4136,VALID,111,VALID,0.393359,
2010-10-31, 02:22:04,VALID,998.196,VALID,0,VALID,93.9511,VALID,0,VALID,22.4136,VALID,111,VALID,0.344141,
2010-10-31, 02:23:04,VALID,998.196,VALID,0,VALID,93.9511,VALID,0,VALID,22.4136,VALID,111,VALID,0.251172,
2010-10-31, 02:24:04,VALID,998.182,VALID,0,VALID,93.9664,VALID,0,VALID,22.3941,VALID,111,VALID,0.194922,
2010-10-31, 02:25:04,VALID,998.181,VALID,0,VALID,93.9359,VALID,0,VALID,22.3551,VALID,111,VALID,0,
2010-10-31, 02:26:04,VALID,998.167,VALID,0,VALID,93.9511,VALID,0,VALID,22.3161,VALID,111,VALID,0,
2010-10-31, 02:27:04,VALID,998.163,VALID,0,VALID,93.9511,VALID,0,VALID,22.2381,VALID,111,VALID,0,
2010-10-31, 02:28:04,VALID,998.156,VALID,0,VALID,93.9664,VALID,0,VALID,22.199,VALID,111,VALID,0.2875,
2010-10-31, 02:29:04,VALID,998.135,VALID,0,VALID,93.9511,VALID,0,VALID,22.16,VALID,111,VALID,0.288281,
2010-10-31, 02:30:04,VALID,998.099,VALID,0,VALID,93.9511,VALID,0,VALID,22.1015,VALID,111,VALID,0.342969,
2010-10-31, 02:31:04,VALID,998.081,VALID,0,VALID,93.9893,VALID,0,VALID,22.0625,VALID,111,VALID,0.552734,
2010-10-31, 02:32:04,VALID,998.075,VALID,0,VALID,93.9893,VALID,0,VALID,22.004,VALID,111,VALID,0.569922,
2010-10-31, 02:33:04,VALID,998.05,VALID,0,VALID,93.9664,VALID,0,VALID,21.9455,VALID,75,VALID,0.511719,
2010-10-31, 02:34:04,VALID,998.037,VALID,0,VALID,93.9817,VALID,0,VALID,21.9065,VALID,75,VALID,0.474219,
2010-10-31, 02:35:04,VALID,998.019,VALID,0,VALID,93.9664,VALID,0,VALID,21.8285,VALID,75,VALID,0.454688,
2010-10-31, 02:36:04,VALID,998.03,VALID,0,VALID,93.9817,VALID,0,VALID,21.8285,VALID,75,VALID,0.55625,
2010-10-31, 02:37:04,VALID,997.975,VALID,0,VALID,93.9817,VALID,0,VALID,21.887,VALID,75,VALID,0.693359,
2010-10-31, 02:38:04,VALID,997.98,VALID,0,VALID,93.9817,VALID,0,VALID,21.9065,VALID,75,VALID,0.667188,
2010-10-31, 02:39:04,VALID,997.954,VALID,0,VALID,93.9893,VALID,0,VALID,21.9845,VALID,75,VALID,0.683984,
2010-10-31, 02:40:04,VALID,997.92,VALID,0,VALID,93.9817,VALID,0,VALID,22.0625,VALID,75,VALID,0.765625,
2010-10-31, 02:41:04,VALID,997.916,VALID,0,VALID,93.974,VALID,0,VALID,22.1015,VALID,75,VALID,0.780469,
2010-10-31, 02:42:04,VALID,997.909,VALID,0,VALID,93.9817,VALID,0,VALID,22.0998,VALID,76,VALID,0.700781,
2010-10-31, 02:43:04,VALID,997.894,VALID,0,VALID,93.974,VALID,0,VALID,22.1015,VALID,91,VALID,0.385547,
2010-10-31, 02:44:04,VALID,997.87,VALID,0,VALID,93.9893,VALID,0,VALID,22.082,VALID,91,VALID,0.344531,
2010-10-31, 02:45:04,VALID,997.865,VALID,0,VALID,93.9817,VALID,0,VALID,22.0625,VALID,91,VALID,0.339063,
2010-10-31, 02:46:04,VALID,997.885,VALID,0,VALID,93.9969,VALID,0,VALID,22.0625,VALID,91,VALID,0.387891,
2010-10-31, 02:47:04,VALID,997.881,VALID,0,VALID,93.9817,VALID,0,VALID,22.0625,VALID,91,VALID,0.116406,
2010-10-31, 02:48:04,VALID,997.876,VALID,0,VALID,94.0045,VALID,0,VALID,22.0625,VALID,91,VALID,0.00195313,
2010-10-31, 02:49:04,VALID,997.878,VALID,0,VALID,93.9969,VALID,0,VALID,22.0625,VALID,91,VALID,0,
2010-10-31, 02:50:04,VALID,997.912,VALID,0,VALID,93.9969,VALID,0,VALID,22.0837,VALID,91,VALID,0,
2010-10-31, 02:51:04,VALID,997.873,VALID,0,VALID,94.0045,VALID,0,VALID,22.082,VALID,91,VALID,0,
2010-10-31, 02:52:04,VALID,997.895,VALID,0,VALID,93.9969,VALID,0,VALID,22.0625,VALID,91,VALID,0,
2010-10-31, 02:53:04,VALID,997.878,VALID,0,VALID,94.0122,VALID,0,VALID,22.0625,VALID,91,VALID,0,
2010-10-31, 02:54:04,VALID,997.903,VALID,0,VALID,93.9893,VALID,0,VALID,22.0235,VALID,91,VALID,0,
2010-10-31, 02:55:04,VALID,997.895,VALID,0,VALID,94.0045,VALID,0,VALID,22.043,VALID,91,VALID,0,
2010-10-31, 02:56:04,VALID,997.889,VALID,0,VALID,94.0045,VALID,0,VALID,22.0218,VALID,91,VALID,0,
2010-10-31, 02:57:04,VALID,997.907,VALID,0,VALID,94.0122,VALID,0,VALID,22.004,VALID,91,VALID,0,
2010-10-31, 02:58:04,VALID,997.93,VALID,0,VALID,94.0274,VALID,0,VALID,21.9828,VALID,91,VALID,0,
2010-10-31, 02:59:04,VALID,997.909,VALID,0,VALID,94.0198,VALID,0,VALID,22.004,VALID,91,VALID,0,
2010-10-31, 03:00:04,VALID,997.906,VALID,0,VALID,94.0351,VALID,0,VALID,21.9065,VALID,91,VALID,0.4625,
2010-10-31, 03:01:04,VALID,997.929,VALID,0,VALID,94.0427,VALID,0,VALID,21.848,VALID,81,VALID,0.632031,
2010-10-31, 03:02:04,VALID,997.917,VALID,0,VALID,94.0198,VALID,0,VALID,21.7895,VALID,28,VALID,0.788281,
2010-10-31, 03:03:04,VALID,997.92,VALID,0,VALID,94.0427,VALID,0,VALID,21.7895,VALID,28,VALID,0.751953,
2010-10-31, 03:04:04,VALID,997.909,VALID,0,VALID,94.0351,VALID,0,VALID,21.809,VALID,28,VALID,0.727734,
2010-10-31, 03:05:04,VALID,997.957,VALID,0,VALID,94.0427,VALID,0,VALID,21.8285,VALID,28,VALID,0.715625,
2010-10-31, 03:06:04,VALID,997.955,VALID,0,VALID,94.0427,VALID,0,VALID,21.809,VALID,28,VALID,0.757031,
2010-10-31, 03:07:04,VALID,997.984,VALID,0,VALID,94.0503,VALID,0,VALID,21.77,VALID,28,VALID,0.476563,
2010-10-31, 03:08:04,VALID,997.981,VALID,0,VALID,94.0503,VALID,0,VALID,21.77,VALID,28,VALID,0.481641,
2010-10-31, 03:09:04,VALID,997.988,VALID,0,VALID,94.0503,VALID,0,VALID,21.8285,VALID,28,VALID,0.399219,
2010-10-31, 03:10:04,VALID,997.963,VALID,0,VALID,94.0427,VALID,0,VALID,21.8887,VALID,28,VALID,0.367969,
2010-10-31, 03:11:04,VALID,997.98,VALID,0,VALID,94.0427,VALID,0,VALID,21.9082,VALID,28,VALID,0.389062,
2010-10-31, 03:12:04,VALID,997.989,VALID,0,VALID,94.058,VALID,0,VALID,21.9065,VALID,28,VALID,0.221484,
2010-10-31, 03:13:04,VALID,998.013,VALID,0,VALID,94.0351,VALID,0,VALID,21.887,VALID,28,VALID,0.0351563,
2010-10-31, 03:14:04,VALID,998.009,VALID,0,VALID,94.0427,VALID,0,VALID,21.8675,VALID,28,VALID,0,
2010-10-31, 03:15:04,VALID,998.028,VALID,0,VALID,94.058,VALID,0,VALID,21.887,VALID,28,VALID,0,
2010-10-31, 03:16:04,VALID,998.047,VALID,0,VALID,94.0503,VALID,0,VALID,21.8853,VALID,28,VALID,0,
2010-10-31, 03:17:04,VALID,998.021,VALID,0,VALID,94.058,VALID,0,VALID,21.9472,VALID,28,VALID,0,
2010-10-31, 03:18:04,VALID,998.058,VALID,0,VALID,94.0427,VALID,0,VALID,21.965,VALID,28,VALID,0,
2010-10-31, 03:19:04,VALID,998.03,VALID,0,VALID,94.0503,VALID,0,VALID,21.965,VALID,28,VALID,0,
2010-10-31, 03:20:04,VALID,998.046,VALID,0,VALID,94.0427,VALID,0,VALID,22.004,VALID,28,VALID,0,
2010-10-31, 03:21:04,VALID,998.026,VALID,0,VALID,94.058,VALID,0,VALID,21.9845,VALID,28,VALID,0,
2010-10-31, 03:22:04,VALID,998.028,VALID,0,VALID,94.0427,VALID,0,VALID,21.9633,VALID,28,VALID,0,
2010-10-31, 03:23:04,VALID,998.029,VALID,0,VALID,94.058,VALID,0,VALID,21.9455,VALID,28,VALID,0,
2010-10-31, 03:24:04,VALID,998.011,VALID,0,VALID,94.0503,VALID,0,VALID,21.926,VALID,28,VALID,0,
2010-10-31, 03:25:04,VALID,998.052,VALID,0,VALID,94.058,VALID,0,VALID,21.9065,VALID,28,VALID,0,
2010-10-31, 03:26:04,VALID,998.074,VALID,0,VALID,94.0503,VALID,0,VALID,21.887,VALID,28,VALID,0,
2010-10-31, 03:27:04,VALID,998.069,VALID,0,VALID,94.0732,VALID,0,VALID,21.8675,VALID,28,VALID,0,
2010-10-31, 03:28:04,VALID,998.106,VALID,0,VALID,94.0885,VALID,0,VALID,21.8285,VALID,28,VALID,0,
2010-10-31, 03:29:04,VALID,998.115,VALID,0,VALID,94.0808,VALID,0,VALID,21.809,VALID,28,VALID,0,
2010-10-31, 03:30:04,VALID,998.13,VALID,0,VALID,94.0732,VALID,0,VALID,21.809,VALID,28,VALID,0,
2010-10-31, 03:31:04,VALID,998.116,VALID,0,VALID,94.0808,VALID,0,VALID,21.848,VALID,28,VALID,0,
2010-10-31, 03:32:04,VALID,998.115,VALID,0,VALID,94.0808,VALID,0,VALID,21.8853,VALID,28,VALID,0,
2010-10-31, 03:33:04,VALID,998.126,VALID,0,VALID,94.0732,VALID,0,VALID,21.9065,VALID,28,VALID,0,
2010-10-31, 03:34:04,VALID,998.107,VALID,0,VALID,94.0808,VALID,0,VALID,21.887,VALID,28,VALID,0,
2010-10-31, 03:35:04,VALID,998.107,VALID,0,VALID,94.1037,VALID,0,VALID,21.887,VALID,28,VALID,0,
2010-10-31, 03:36:04,VALID,998.106,VALID,0,VALID,94.1114,VALID,0,VALID,21.8675,VALID,28,VALID,0,
2010-10-31, 03:37:04,VALID,998.09,VALID,0,VALID,94.0961,VALID,0,VALID,21.8675,VALID,28,VALID,0,
2010-10-31, 03:38:04,VALID,998.109,VALID,0,VALID,94.0885,VALID,0,VALID,21.926,VALID,28,VALID,0,
2010-10-31, 03:39:04,VALID,998.168,VALID,0,VALID,94.0656,VALID,0,VALID,21.9455,VALID,28,VALID,0,
2010-10-31, 03:40:04,VALID,998.166,VALID,0,VALID,94.0732,VALID,0,VALID,21.9455,VALID,28,VALID,0,
2010-10-31, 03:41:04,VALID,998.213,VALID,0,VALID,94.0961,VALID,0,VALID,22.004,VALID,28,VALID,0,
2010-10-31, 03:42:04,VALID,998.219,VALID,0,VALID,94.0808,VALID,0,VALID,22.0642,VALID,28,VALID,0.305078,
2010-10-31, 03:43:04,VALID,998.286,VALID,0,VALID,94.1037,VALID,0,VALID,22.0057,VALID,28,VALID,1.29258,
2010-10-31, 03:44:04,VALID,998.303,VALID,0,VALID,94.0961,VALID,0,VALID,21.8285,VALID,18,VALID,1.3,
2010-10-31, 03:45:04,VALID,998.292,VALID,0,VALID,94.1114,VALID,0,VALID,21.731,VALID,18,VALID,1.30898,
2010-10-31, 03:46:04,VALID,998.301,VALID,0,VALID,94.1266,VALID,0,VALID,21.6725,VALID,15,VALID,1.23711,
2010-10-31, 03:47:04,VALID,998.329,VALID,0,VALID,94.1266,VALID,0,VALID,21.692,VALID,15,VALID,1.33789,
2010-10-31, 03:48:04,VALID,998.319,VALID,0,VALID,94.1343,VALID,0,VALID,21.7326,VALID,15,VALID,1.16133,
2010-10-31, 03:49:04,VALID,998.329,VALID,0,VALID,94.119,VALID,0,VALID,21.7505,VALID,15,VALID,0.887109,
2010-10-31, 03:50:04,VALID,998.342,VALID,0,VALID,94.1419,VALID,0,VALID,21.7505,VALID,15,VALID,0.975781,